Location: Proctor
(47.8934°N, 114.3048°W)
Time: 08:20:05
(UTC+00:00)

QB50P2 - Visible Passes

Search period start: 25 June 2022 00:00
Search period end: 05 July 2022 00:00
Orbit: 589 x 607 km, 97.9° (Epoch: 24 June)

Date Brightness Start Highest point End Pass type
(mag) Time Alt. Az. Time Alt. Az. Time Alt. Az.
25 Jun ? 08:43:15 10° NNE 08:47:20 46° E 08:49:18 26° SSE visible
25 Jun ? 10:19:35 10° NNW 10:22:42 20° WNW 10:25:50 10° WSW visible
26 Jun ? 08:53:39 10° NNE 08:57:51 59° E 08:59:54 28° S visible
26 Jun ? 10:30:23 10° NNW 10:33:05 17° WNW 10:35:46 10° W visible
27 Jun ? 09:04:06 10° NNE 09:08:21 77° ESE 09:10:29 29° S visible
27 Jun ? 10:41:20 10° NNW 10:43:26 14° WNW 10:45:33 10° W visible
28 Jun ? 07:41:35 10° ENE 07:42:34 11° E 07:43:35 10° E visible
28 Jun ? 09:14:34 10° NNE 09:18:49 84° WNW 09:21:04 27° SSW visible
28 Jun ? 10:52:34 10° NW 10:53:46 11° WNW 10:54:59 10° WNW visible
29 Jun ? 07:50:59 10° ENE 07:53:11 14° E 07:54:56 11° ESE visible
29 Jun ? 09:25:04 10° N 09:29:17 66° WNW 09:31:38 25° SSW visible
30 Jun ? 08:00:54 10° NE 08:03:46 17° E 08:05:30 14° ESE visible
30 Jun ? 09:35:36 10° N 09:39:43 51° WNW 09:42:12 22° SW visible
01 Jul ? 08:11:01 10° NE 08:14:20 22° E 08:16:04 17° SE visible
01 Jul ? 09:46:10 10° N 09:50:09 40° WNW 09:52:46 19° SW visible
02 Jul ? 08:21:13 10° NE 08:24:52 27° E 08:26:37 21° SE visible
02 Jul ? 09:56:46 10° N 10:00:33 32° WNW 10:03:19 16° WSW visible
03 Jul ? 08:31:30 10° NNE 08:35:24 34° E 08:37:11 24° SE visible
03 Jul ? 10:07:23 10° N 10:10:56 26° WNW 10:13:53 13° WSW visible
04 Jul ? 08:41:50 10° NNE 08:45:54 44° E 08:47:44 28° SSE visible
04 Jul ? 10:18:05 10° NNW 10:21:18 21° WNW 10:24:26 10° WSW visible
